QPF
0.00 0.00 0.00 0.00 0.00 0.00 0.00 0.00 0.00 0.00 0.00 0.00 0.00 0.00 0.00 0.00 0.00 0.00 0.00 0.00 0.00 0.00 0.00 0.00 0.00 0.00 0.00 0.00 0.00 0.00 0.00 0.00 0.00 0.00 0.00 0.00 0.00 0.01 0.05 0.05 0.03 0.02 0.00 0.00
0.00 0.00 0.00 0.00 0.00 0.00 0.00 0.00 0.00 0.00 0.00 0.00 0.00 0.00 0.00 0.00 0.00 0.00 0.00 0.00 0.00 0.00 0.00 0.00 0.00 0.00 0.00 0.00 0.00 0.00 0.00 0.00 0.00 0.00 0.00 0.00 0.02 0.01 0.02 0.00 0.00 0.00 0.00 0.00
0.00 0.00 0.00 0.00 0.00 0.00 0.00 0.00 0.00 0.00 0.00 0.00 0.00 0.00 0.00 0.00 0.00 0.00 0.00 0.00 0.00 0.00 0.00 0.00 0.00 0.00 0.00 0.00 0.00 0.00 0.00 0.00 0.00 0.01 0.02 0.00 0.00 0.00 0.01 0.00 0.00 0.00 0.00 0.00
0.00 0.00 0.00 0.00 0.00 0.00 0.00 0.00 0.00 0.00 0.00 0.00 0.00 0.00 0.00 0.00 0.00 0.00 0.00 0.00 0.00 0.00 0.00 0.00 0.00 0.00 0.00 0.00 0.00 0.00 0.00 0.00 0.00 0.00 0.01 0.03 0.01 0.01 0.00 0.00 0.00 0.00 0.00 0.00
0.00 0.00 0.00 0.00 0.00 0.00 0.00 0.00 0.00 0.00 0.00 0.00 0.00 0.00 0.00 0.00 0.00 0.00 0.00 0.00 0.00 0.00 0.00 0.00 0.00 0.00 0.00 0.00 0.00 0.00 0.00 0.00 0.00 0.00 0.01 0.01 0.00 0.00 0.00 0.00 0.00 0.00 0.00 0.00
0.00 0.00 0.00 0.00 0.00 0.00 0.00 0.00 0.00 0.00 0.00 0.00 0.00 0.00 0.00 0.00 0.00 0.00 0.00 0.00 0.00 0.00 0.00 0.00 0.00 0.00 0.00 0.00 0.00 0.00 0.00 0.00 0.00 0.00 0.00 0.00 0.00 0.00 0.00 0.00 0.00 0.00 0.00 0.00
0.00 0.00 0.00 0.00 0.00 0.00 0.00 0.00 0.00 0.00 0.00 0.00 0.00 0.00 0.00 0.00 0.00 0.00 0.00 0.00 0.00 0.00 0.00 0.00 0.00 0.00 0.00 0.00 0.00 0.00 0.00 0.00 0.00 0.00 0.00 0.00 0.00 0.00 0.00 0.00 0.00 0.00 0.00 0.00
0.00 0.00 0.00 0.00 0.00 0.00 0.00 0.00 0.00 0.00 0.00 0.00 0.00 0.00 0.00 0.00 0.00 0.00 0.00 0.00 0.00 0.00 0.00 0.00 0.00 0.00 0.00 0.00 0.00 0.00 0.00 0.00 0.00 0.00 0.00 0.00 0.00 0.00 0.00 0.00 0.00 0.00 0.00 0.00
0.00 0.00 0.00 0.00 0.00 0.00 0.00 0.00 0.00 0.00 0.00 0.00 0.00 0.00 0.00 0.00 0.00 0.00 0.00 0.00 0.00 0.00 0.00 0.00 0.00 0.00 0.00 0.00 0.00 0.00 0.00 0.00 0.00 0.00 0.00 0.00 0.00 0.00 0.00 0.00 0.00 0.00 0.00 0.00
0.00 0.00 0.00 0.00 0.00 0.00 0.00 0.00 0.00 0.00 0.00 0.00 0.00 0.00 0.00 0.00 0.00 0.00 0.00 0.00 0.00 0.00 0.00 0.00 0.00 0.00 0.00 0.00 0.00 0.00 0.00 0.00 0.00 0.00 0.00 0.00 0.00 0.00 0.00 0.00 0.00 0.00 0.00 0.00
0.00 0.00 0.00 0.00 0.00 0.00 0.00 0.00 0.00 0.00 0.00 0.00 0.00 0.00 0.00 0.00 0.00 0.00 0.00 0.00 0.00 0.00 0.00 0.00 0.00 0.00 0.00 0.00 0.00 0.00 0.00 0.00 0.00 0.00 0.00 0.00 0.00 0.00 0.00 0.00 0.00 0.00 0.00 0.00
0.00 0.00 0.00 0.00 0.00 0.00 0.00 0.00 0.00 0.00 0.00 0.00 0.00 0.00 0.00 0.00 0.00 0.00 0.00 0.00 0.00 0.00 0.00 0.00 0.00 0.00 0.00 0.00 0.00 0.00 0.00 0.00 0.00 0.00 0.00 0.00 0.00 0.00 0.00 0.00 0.00 0.00 0.00 0.00
0.00 0.00 0.00 0.00 0.00 0.00 0.00 0.00 0.00 0.00 0.00 0.00 0.00 0.00 0.00 0.00 0.00 0.00 0.00 0.00 0.00 0.00 0.00 0.00 0.02 0.00 0.00 0.00 0.00 0.00 0.00 0.00 0.00 0.00 0.00 0.00 0.00 0.00 0.00 0.00 0.00 0.00 0.00 0.00
0.00 0.00 0.00 0.00 0.00 0.00 0.00 0.00 0.00 0.00 0.00 0.00 0.00 0.00 0.00 0.00 0.00 0.00 0.00 0.00 0.00 0.00 0.00 0.01 0.03 0.01 0.00 0.00 0.00 0.00 0.00 0.00 0.00 0.00 0.00 0.00 0.00 0.00 0.00 0.00 0.00 0.00 0.00 0.00
0.00 0.00 0.00 0.00 0.00 0.00 0.00 0.00 0.00 0.00 0.00 0.00 0.00 0.00 0.00 0.00 0.00 0.00 0.00 0.00 0.00 0.00 0.00 0.02 0.04 0.01 0.00 0.00 0.00 0.00 0.00 0.00 0.00 0.00 0.00 0.00 0.00 0.00 0.00 0.00 0.00 0.00 0.00 0.00
0.00 0.00 0.00 0.00 0.00 0.00 0.00 0.00 0.00 0.00 0.00 0.00 0.00 0.00 0.00 0.00 0.00 0.00 0.00 0.00 0.00 0.00 0.01 0.03 0.03 0.00 0.00 0.00 0.00 0.00 0.00 0.00 0.00 0.00 0.00 0.00 0.00 0.00 0.00 0.00 0.00 0.00 0.00 0.00
0.00 0.00 0.00 0.00 0.00 0.00 0.00 0.00 0.00 0.00 0.00 0.00 0.00 0.00 0.00 0.00 0.00 0.00 0.00 0.00 0.00 0.00 0.02 0.04 0.00 0.00 0.01 0.00 0.00 0.00 0.00 0.00 0.00 0.00 0.00 0.00 0.00 0.00 0.00 0.00 0.00 0.00 0.00 0.00
0.00 0.00 0.00 0.00 0.00 0.00 0.00 0.00 0.00 0.00 0.00 0.00 0.00 0.00 0.00 0.00 0.00 0.00 0.00 0.00 0.00 0.00 0.02 0.01 0.00 0.00 0.00 0.00 0.00 0.00 0.00 0.00 0.00 0.00 0.00 0.00 0.00 0.00 0.00 0.00 0.00 0.00 0.00 0.00
0.00 0.00 0.00 0.00 0.00 0.00 0.00 0.00 0.00 0.00 0.00 0.00 0.00 0.00 0.00 0.00 0.00 0.00 0.00 0.00 0.00 0.00 0.00 0.00 0.00 0.00 0.00 0.00 0.00 0.00 0.00 0.00 0.00 0.00 0.00 0.00 0.00 0.00 0.00 0.00 0.00 0.00 0.00 0.00
0.00 0.00 0.00 0.00 0.00 0.00 0.00 0.00 0.00 0.00 0.00 0.00 0.00 0.00 0.00 0.00 0.00 0.00 0.00 0.00 0.00 0.00 0.00 0.00 0.00 0.00 0.00 0.00 0.00 0.00 0.00 0.00 0.00 0.00 0.00 0.00 0.00 0.00 0.00 0.00 0.00 0.00 0.00 0.00
0.00 0.00 0.00 0.00 0.00 0.00 0.00 0.00 0.00 0.00 0.00 0.00 0.00 0.00 0.00 0.00 0.00 0.00 0.00 0.00 0.00 0.00 0.00 0.00 0.00 0.00 0.00 0.00 0.00 0.00 0.00 0.00 0.00 0.00 0.00 0.00 0.00 0.00 0.00 0.00 0.00 0.00 0.00 0.00
0.00 0.00 0.00 0.00 0.00 0.00 0.00 0.00 0.00 0.00 0.00 0.00 0.00 0.00 0.00 0.00 0.00 0.00 0.00 0.00 0.00 0.00 0.00 0.00 0.00 0.00 0.00 0.00 0.00 0.00 0.00 0.00 0.00 0.00 0.00 0.00 0.00 0.00 0.00 0.00 0.00 0.00 0.00 0.00
0.00 0.00 0.00 0.00 0.00 0.00 0.00 0.00 0.00 0.00 0.00 0.00 0.00 0.00 0.00 0.00 0.00 0.00 0.00 0.00 0.00 0.00 0.00 0.00 0.00 0.00 0.00 0.00 0.00 0.00 0.00 0.00 0.00 0.00 0.00 0.00 0.00 0.00 0.00 0.00 0.00 0.00 0.00 0.00
0.01 0.04 0.01 0.00 0.00 0.00 0.00 0.00 0.00 0.00 0.00 0.00 0.00 0.00 0.00 0.00 0.00 0.00 0.00 0.02 0.02 0.01 0.00 0.00 0.00 0.00 0.00 0.00 0.00 0.00 0.00 0.00 0.00 0.00 0.00 0.00 0.00 0.00 0.00 0.00 0.00 0.00 0.00 0.00
0.03 0.06 0.03 0.02 0.00 0.00 0.00 0.00 0.00 0.00 0.00 0.00 0.00 0.00 0.01 0.01 0.00 0.01 0.02 0.04 0.04 0.01 0.00 0.00 0.00 0.00 0.00 0.00 0.00 0.00 0.00 0.00 0.00 0.00 0.00 0.00 0.00 0.00 0.00 0.00 0.00 0.00 0.00 0.00
0.04 0.06 0.05 0.03 0.01 0.01 0.00 0.00 0.00 0.00 0.00 0.00 0.00 0.00 0.01 0.00 0.01 0.01 0.00 0.00 0.00 0.00 0.00 0.00 0.00 0.00 0.00 0.00 0.00 0.00 0.00 0.00 0.00 0.00 0.00 0.00 0.00 0.00 0.00 0.00 0.00 0.00 0.00 0.00
MSLP
1010.34 1011.13 1011.56 1011.72 1011.86 1011.69 1011.80 1011.75 1011.50 1010.09 1009.25 1009.53 1008.59 1008.18 1007.58 1008.23 1008.78 1009.29 1009.66 1010.06 1010.35 1011.29 1011.89 1012.49 1012.39 1013.00 1013.08 1012.83 1013.07 1013.51 1013.97 1014.83 1015.47 1016.22 1016.93 1017.67 1018.18 1018.47 1018.77 1018.67 1018.55 1019.02 1019.15 1019.08
1010.69 1010.70 1010.87 1011.09 1011.31 1011.47 1011.49 1011.42 1010.94 1010.05 1009.13 1009.35 1008.52 1008.51 1007.92 1008.41 1008.56 1008.65 1009.47 1009.83 1010.19 1011.48 1012.61 1013.08 1013.34 1013.47 1013.79 1013.95 1014.10 1014.35 1014.80 1015.35 1015.90 1016.42 1016.90 1017.67 1018.29 1018.42 1018.77 1018.81 1018.64 1019.07 1019.22 1019.33
1010.61 1010.31 1010.19 1010.78 1010.94 1011.23 1011.21 1011.20 1010.58 1010.60 1009.55 1009.24 1009.08 1009.49 1009.29 1009.21 1009.26 1009.51 1010.40 1010.51 1011.01 1011.40 1012.22 1013.12 1013.94 1014.26 1014.38 1014.63 1014.89 1015.19 1015.66 1016.16 1016.42 1016.78 1017.18 1017.93 1018.48 1018.72 1019.20 1019.09 1019.27 1019.19 1019.26 1019.41
1010.32 1009.73 1009.82 1010.19 1010.46 1010.78 1010.89 1010.14 1010.41 1010.51 1010.60 1010.18 1010.00 1010.86 1010.53 1010.33 1010.31 1010.30 1010.83 1011.31 1011.96 1012.67 1013.52 1013.69 1014.22 1014.83 1015.02 1015.31 1015.38 1015.80 1016.18 1016.42 1016.63 1016.83 1017.13 1017.68 1018.41 1019.10 1019.40 1019.50 1019.63 1019.57 1019.40 1019.79
1009.67 1009.38 1009.40 1009.56 1009.44 1010.00 1009.88 1009.84 1010.19 1010.28 1010.63 1010.71 1010.92 1011.47 1011.20 1011.18 1011.11 1010.85 1010.93 1011.67 1012.43 1012.92 1013.58 1014.30 1014.86 1015.38 1015.68 1015.83 1016.20 1016.29 1016.65 1016.89 1017.03 1017.11 1017.33 1018.03 1018.70 1019.40 1019.68 1019.93 1019.89 1020.31 1020.34 1020.04
1009.28 1008.85 1008.82 1008.67 1008.60 1009.23 1009.20 1009.71 1010.33 1011.29 1011.43 1011.76 1011.45 1011.74 1011.61 1011.38 1010.62 1010.71 1011.01 1011.51 1012.33 1013.13 1013.86 1014.72 1015.46 1016.09 1016.36 1016.30 1016.24 1017.06 1017.18 1017.33 1017.46 1017.77 1018.09 1018.54 1019.37 1019.90 1020.18 1020.59 1020.95 1020.97 1020.74 1020.36
1009.50 1008.93 1008.57 1008.35 1008.36 1008.49 1009.19 1010.46 1011.47 1012.09 1012.55 1012.61 1011.70 1012.05 1010.81 1010.09 1009.68 1009.54 1010.20 1011.00 1011.94 1012.95 1014.12 1015.02 1015.75 1016.29 1016.46 1016.79 1017.40 1017.70 1017.52 1017.88 1017.98 1018.17 1018.64 1019.24 1019.72 1020.19 1020.95 1021.29 1021.27 1021.04 1020.51 1020.56
1009.91 1009.01 1008.09 1007.97 1008.05 1008.48 1009.03 1010.22 1011.47 1012.31 1013.03 1012.62 1011.93 1011.33 1010.12 1010.04 1009.24 1009.42 1010.50 1011.98 1012.94 1013.52 1014.31 1015.22 1015.83 1016.47 1017.22 1017.64 1017.61 1018.10 1018.18 1018.43 1018.67 1019.03 1019.68 1020.03 1020.50 1020.75 1020.91 1020.67 1020.59 1020.95 1021.26 1021.34
1009.64 1008.99 1007.61 1007.27 1007.28 1007.88 1008.67 1009.64 1010.06 1011.50 1012.83 1012.68 1011.79 1010.79 1010.34 1010.13 1009.78 1010.39 1011.39 1012.56 1013.68 1014.34 1014.93 1015.58 1016.25 1016.85 1017.72 1018.19 1018.19 1018.65 1018.53 1019.07 1019.39 1019.75 1020.11 1020.39 1020.44 1020.22 1020.46 1020.91 1021.27 1021.46 1021.39 1021.20
1009.13 1009.05 1007.80 1007.08 1007.21 1007.54 1007.89 1008.76 1010.14 1011.68 1012.57 1013.01 1012.03 1011.10 1010.45 1010.53 1010.65 1011.23 1011.72 1012.42 1013.56 1014.31 1014.88 1015.50 1016.33 1017.42 1017.74 1017.49 1017.67 1018.46 1018.84 1019.50 1019.92 1020.18 1020.07 1019.93 1020.23 1020.59 1020.95 1021.43 1021.46 1021.35 1021.26 1021.17
1009.08 1009.50 1007.52 1007.79 1007.59 1007.56 1008.13 1008.72 1010.06 1011.17 1011.91 1012.20 1011.96 1010.97 1008.62 1008.91 1009.62 1010.02 1011.05 1012.00 1012.85 1013.72 1014.47 1015.34 1016.00 1016.60 1017.18 1017.31 1017.78 1018.12 1018.88 1019.33 1019.91 1019.94 1020.09 1020.39 1020.88 1020.83 1021.34 1021.35 1021.26 1021.25 1021.23 1021.21
1009.51 1009.88 1009.05 1008.16 1007.22 1007.23 1007.48 1008.00 1009.09 1010.84 1011.41 1011.59 1010.85 1008.96 1007.67 1007.71 1008.23 1009.63 1010.88 1011.66 1012.33 1012.89 1014.09 1015.06 1015.96 1016.75 1017.15 1017.60 1018.13 1018.29 1018.57 1018.81 1019.52 1019.99 1020.53 1020.90 1020.86 1020.93 1021.20 1021.22 1021.18 1021.13 1021.22 1021.01
1009.89 1010.50 1010.37 1008.91 1007.81 1007.61 1007.53 1007.61 1008.20 1009.27 1010.05 1010.47 1010.57 1008.47 1007.60 1007.52 1008.66 1009.50 1010.32 1011.06 1011.83 1012.92 1014.08 1014.93 1015.67 1016.25 1016.69 1017.05 1017.67 1018.44 1018.70 1019.06 1019.56 1020.11 1020.65 1020.85 1020.76 1020.98 1021.07 1021.05 1021.00 1021.03 1021.08 1020.92
1010.43 1011.03 1010.86 1010.05 1009.24 1008.51 1007.50 1007.03 1007.31 1008.15 1009.37 1009.25 1008.48 1008.09 1007.94 1008.26 1008.45 1009.19 1009.86 1010.44 1011.27 1012.45 1013.43 1014.63 1015.61 1016.01 1016.47 1017.06 1017.47 1018.33 1018.85 1019.24 1019.75 1020.18 1020.59 1020.75 1020.74 1020.76 1020.76 1020.78 1020.81 1020.83 1020.92 1020.84
1011.34 1011.35 1010.76 1009.89 1009.25 1008.20 1007.28 1006.68 1006.63 1007.04 1007.20 1008.09 1007.20 1007.38 1006.82 1007.07 1007.54 1007.82 1007.95 1010.17 1011.59 1012.46 1013.46 1014.21 1014.82 1015.72 1016.69 1017.09 1017.85 1018.39 1019.11 1019.59 1019.86 1020.19 1020.42 1020.54 1020.48 1020.49 1020.58 1020.67 1020.63 1020.54 1020.48 1020.32
1012.63 1011.92 1011.18 1010.13 1008.88 1007.93 1006.84 1005.91 1005.71 1005.80 1005.92 1006.10 1006.20 1006.27 1005.97 1006.39 1007.48 1008.27 1008.54 1009.58 1010.79 1011.70 1012.86 1013.68 1014.47 1015.42 1016.38 1017.20 1017.86 1018.42 1019.08 1019.57 1019.74 1020.04 1020.15 1020.23 1020.24 1020.21 1020.29 1020.35 1020.27 1020.22 1020.06 1020.00
1013.84 1012.74 1011.97 1010.44 1009.30 1008.05 1006.40 1004.26 1004.44 1004.69 1004.57 1004.80 1005.24 1005.34 1006.07 1006.81 1006.81 1007.21 1007.98 1008.67 1009.45 1010.29 1011.74 1013.34 1014.08 1015.00 1015.92 1016.85 1017.66 1018.52 1019.07 1019.32 1019.70 1019.89 1019.90 1019.79 1019.82 1019.91 1019.95 1019.98 1019.97 1020.00 1019.92 1019.77
1013.33 1013.02 1012.42 1011.24 1010.07 1008.32 1005.06 1003.65 1003.01 1003.63 1003.48 1003.64 1004.04 1004.61 1004.99 1005.64 1006.01 1006.75 1007.33 1007.73 1009.24 1010.49 1011.82 1012.99 1013.83 1014.95 1015.95 1016.97 1017.90 1018.62 1019.01 1019.33 1019.53 1019.62 1019.55 1019.55 1019.62 1019.71 1019.72 1019.79 1019.76 1019.73 1019.61 1019.36
1012.57 1012.82 1012.31 1011.70 1010.47 1007.67 1004.92 1003.38 1003.22 1003.20 1003.03 1002.99 1003.43 1004.21 1005.25 1005.97 1007.02 1007.87 1007.91 1008.48 1009.02 1010.00 1011.33 1012.61 1013.68 1014.98 1016.08 1017.07 1017.96 1018.54 1019.14 1019.26 1019.26 1019.24 1019.35 1019.41 1019.49 1019.62 1019.59 1019.65 1019.61 1019.46 1019.36 1019.09
1010.81 1011.42 1011.86 1011.46 1010.20 1008.00 1004.32 1003.21 1002.40 1002.99 1003.00 1002.99 1003.46 1004.24 1005.31 1006.29 1007.43 1006.97 1007.54 1008.55 1009.77 1010.59 1011.80 1012.88 1014.10 1015.40 1016.56 1017.56 1018.05 1018.49 1018.91 1019.10 1019.12 1019.15 1019.19 1019.21 1019.29 1019.33 1019.55 1019.49 1019.35 1019.09 1019.01 1018.85
1011.44 1011.55 1011.27 1010.62 1009.70 1007.15 1004.83 1003.89 1003.46 1003.45 1001.99 1002.80 1003.30 1003.93 1005.11 1005.60 1005.45 1005.84 1007.41 1008.98 1010.13 1011.15 1012.42 1013.70 1014.80 1015.95 1017.00 1017.74 1018.03 1018.50 1018.74 1019.02 1018.99 1018.98 1019.04 1019.05 1019.10 1019.20 1019.16 1019.18 1019.06 1018.82 1018.66 1018.43
1011.66 1011.49 1010.70 1009.87 1009.11 1006.90 1004.20 1004.06 1003.86 1002.82 1002.46 1002.59 1003.25 1003.87 1004.99 1005.71 1006.63 1006.91 1008.05 1009.52 1010.67 1011.73 1012.73 1013.73 1015.06 1016.79 1017.47 1017.89 1018.12 1018.57 1018.93 1018.78 1018.95 1018.92 1018.93 1019.14 1019.13 1019.09 1019.05 1019.02 1018.70 1018.71 1018.61 1018.42
1011.01 1010.30 1009.69 1009.39 1007.11 1005.31 1004.06 1003.09 1002.47 1002.43 1002.95 1002.91 1003.08 1004.14 1004.90 1005.98 1007.23 1008.10 1009.31 1010.47 1011.67 1012.35 1013.46 1014.39 1014.67 1016.69 1017.28 1017.83 1018.35 1018.62 1018.83 1018.84 1018.94 1019.07 1019.21 1019.25 1019.12 1019.02 1018.97 1019.08 1019.02 1018.77 1018.54 1018.43
1011.12 1010.13 1009.27 1008.56 1005.87 1005.10 1004.43 1003.00 1002.55 1002.28 1002.16 1002.56 1002.76 1003.72 1004.89 1006.17 1007.40 1008.67 1010.08 1011.67 1013.01 1014.12 1014.05 1014.34 1015.68 1016.59 1017.43 1018.11 1018.20 1018.37 1018.75 1018.79 1019.05 1019.24 1019.29 1019.32 1019.41 1019.29 1019.17 1019.06 1018.91 1018.80 1018.57 1018.60
1012.63 1011.71 1009.51 1008.35 1006.38 1004.86 1003.86 1003.37 1002.38 1001.84 1002.11 1002.77 1003.53 1003.91 1005.05 1005.83 1007.60 1008.19 1009.90 1011.17 1013.08 1014.08 1015.71 1014.95 1016.01 1016.74 1017.48 1017.76 1018.10 1018.37 1018.78 1019.03 1019.24 1019.31 1019.36 1019.44 1019.55 1019.50 1019.37 1019.08 1018.78 1018.68 1018.40 1018.33
1011.27 1010.38 1009.47 1007.01 1006.01 1006.21 1003.86 1003.15 1002.59 1002.01 1001.98 1002.58 1003.22 1004.54 1005.65 1006.06 1007.20 1008.30 1009.74 1010.14 1012.11 1014.46 1015.34 1015.56 1016.59 1016.92 1017.57 1017.57 1018.23 1018.60 1018.84 1019.04 1019.24 1019.36 1019.48 1019.57 1019.67 1019.63 1019.41 1019.09 1018.76 1018.41 1018.15 1017.91
Thickness
5756 5737 5728 5737 5741 5746 5745 5738 5734 5757 5772 5767 5770 5772 5791 5791 5790 5790 5790 5792 5794 5787 5787 5784 5786 5782 5781 5782 5778 5774 5768 5758 5751 5742 5731 5720 5713 5711 5705 5701 5697 5687 5681 5679
5740 5729 5744 5751 5749 5745 5744 5737 5740 5757 5773 5766 5772 5773 5793 5788 5793 5799 5795 5795 5794 5784 5776 5776 5774 5776 5774 5772 5768 5763 5756 5749 5743 5736 5728 5720 5712 5709 5700 5694 5690 5681 5676 5671
5725 5742 5753 5746 5740 5738 5738 5737 5740 5741 5761 5770 5768 5757 5768 5782 5787 5792 5786 5790 5790 5786 5778 5772 5768 5767 5768 5764 5761 5755 5744 5738 5736 5730 5725 5715 5707 5701 5690 5687 5680 5675 5668 5662
5730 5747 5746 5740 5736 5737 5721 5750 5751 5747 5745 5725 5759 5716 5749 5762 5767 5776 5778 5776 5775 5772 5765 5766 5764 5760 5760 5756 5752 5745 5740 5735 5731 5727 5721 5712 5703 5692 5685 5679 5672 5667 5663 5653
5732 5742 5736 5732 5742 5745 5740 5753 5747 5750 5741 5738 5741 5720 5732 5750 5755 5764 5771 5771 5767 5767 5763 5759 5756 5754 5752 5749 5743 5740 5735 5730 5726 5720 5714 5704 5693 5682 5674 5666 5661 5653 5647 5645
5736 5753 5747 5746 5753 5747 5759 5749 5738 5722 5718 5702 5730 5721 5722 5732 5752 5760 5768 5769 5765 5763 5759 5753 5749 5743 5741 5742 5740 5732 5728 5722 5716 5709 5701 5692 5679 5669 5662 5653 5646 5639 5637 5635
5724 5731 5747 5757 5742 5751 5745 5718 5685 5691 5691 5689 5727 5713 5730 5761 5765 5774 5771 5766 5766 5762 5753 5748 5742 5738 5736 5733 5727 5722 5720 5713 5707 5700 5690 5678 5669 5660 5647 5640 5635 5633 5632 5624
5692 5692 5735 5751 5741 5732 5728 5714 5681 5679 5678 5695 5715 5707 5734 5753 5771 5780 5767 5756 5753 5752 5749 5744 5739 5732 5725 5721 5718 5711 5707 5700 5693 5684 5672 5663 5654 5646 5640 5636 5632 5624 5615 5607
5685 5697 5741 5749 5753 5745 5731 5711 5732 5701 5693 5688 5702 5730 5746 5750 5758 5759 5752 5746 5740 5738 5737 5735 5728 5723 5716 5710 5707 5701 5698 5689 5679 5670 5660 5652 5646 5643 5637 5627 5620 5612 5606 5599
5707 5689 5732 5743 5748 5744 5735 5739 5709 5690 5683 5678 5691 5715 5718 5732 5739 5743 5744 5743 5737 5734 5732 5729 5723 5714 5710 5710 5705 5695 5688 5678 5666 5658 5652 5649 5642 5634 5625 5617 5611 5606 5599 5591
5708 5692 5723 5727 5716 5717 5718 5714 5710 5701 5686 5673 5671 5692 5742 5746 5746 5747 5747 5743 5739 5736 5733 5727 5721 5715 5707 5703 5696 5690 5681 5672 5660 5654 5648 5641 5632 5626 5617 5611 5606 5599 5591 5582
5706 5682 5686 5706 5733 5735 5729 5719 5709 5681 5691 5683 5683 5700 5761 5760 5758 5750 5741 5741 5740 5740 5730 5722 5714 5705 5700 5695 5688 5684 5677 5670 5659 5650 5640 5632 5626 5620 5611 5604 5598 5590 5582 5575
5698 5673 5660 5681 5710 5719 5714 5723 5720 5706 5695 5684 5683 5699 5755 5755 5748 5747 5742 5742 5740 5732 5723 5717 5712 5706 5700 5696 5687 5677 5671 5664 5654 5643 5633 5625 5620 5613 5605 5598 5592 5584 5575 5568
5691 5669 5668 5661 5685 5700 5704 5719 5722 5714 5681 5699 5697 5726 5740 5735 5738 5741 5741 5741 5737 5728 5721 5714 5706 5704 5698 5691 5685 5673 5664 5656 5645 5635 5626 5620 5614 5607 5600 5593 5586 5578 5569 5561
5672 5661 5668 5681 5692 5702 5709 5717 5717 5709 5714 5698 5729 5718 5743 5741 5742 5746 5753 5737 5726 5721 5716 5710 5707 5699 5689 5683 5673 5665 5652 5644 5637 5630 5622 5615 5608 5601 5594 5587 5580 5573 5566 5558
5652 5650 5667 5669 5691 5697 5701 5718 5723 5718 5721 5718 5724 5726 5750 5746 5740 5737 5740 5734 5726 5722 5715 5709 5703 5694 5684 5674 5665 5657 5647 5637 5631 5623 5616 5609 5603 5597 5590 5583 5576 5569 5564 5555
5634 5639 5644 5644 5675 5680 5684 5719 5725 5725 5729 5732 5716 5738 5735 5734 5742 5742 5739 5738 5734 5731 5719 5705 5699 5691 5680 5670 5662 5649 5640 5633 5625 5618 5612 5608 5601 5594 5587 5580 5574 5566 5559 5552
5632 5635 5635 5631 5656 5644 5702 5728 5737 5729 5737 5739 5743 5740 5744 5743 5748 5745 5744 5742 5734 5724 5712 5703 5696 5686 5674 5662 5651 5640 5634 5627 5621 5614 5610 5604 5597 5590 5583 5576 5569 5562 5555 5551
5632 5621 5624 5621 5621 5660 5699 5722 5724 5719 5721 5738 5742 5742 5737 5735 5732 5729 5736 5736 5732 5723 5711 5700 5691 5676 5666 5656 5644 5634 5626 5622 5618 5613 5606 5599 5591 5584 5578 5572 5564 5557 5551 5547
5630 5628 5622 5616 5619 5624 5693 5721 5735 5729 5698 5741 5738 5734 5730 5731 5710 5726 5734 5728 5718 5710 5699 5689 5680 5668 5657 5644 5636 5630 5623 5618 5614 5608 5601 5594 5586 5580 5573 5565 5559 5554 5548 5543
5605 5603 5606 5614 5609 5638 5684 5703 5716 5683 5717 5735 5739 5739 5731 5732 5739 5739 5728 5715 5707 5698 5687 5677 5669 5659 5648 5638 5632 5626 5620 5614 5608 5602 5596 5589 5581 5575 5569 5562 5555 5550 5544 5539
5590 5585 5593 5601 5600 5621 5692 5690 5682 5707 5723 5729 5731 5730 5722 5717 5718 5722 5714 5703 5695 5687 5679 5671 5656 5643 5635 5631 5626 5619 5613 5609 5602 5596 5590 5581 5575 5570 5564 5557 5552 5544 5538 5533
5580 5593 5599 5596 5615 5662 5676 5692 5705 5705 5708 5718 5723 5717 5716 5710 5704 5703 5695 5689 5679 5675 5667 5659 5653 5635 5629 5624 5617 5613 5607 5601 5595 5588 5582 5574 5569 5564 5558 5550 5543 5537 5531 5524
5577 5585 5585 5596 5644 5654 5662 5681 5691 5702 5708 5713 5719 5715 5708 5700 5696 5688 5679 5668 5658 5652 5653 5649 5638 5631 5621 5614 5612 5609 5599 5595 5588 5581 5575 5568 5561 5556 5549 5543 5537 5531 5525 5516
5545 5555 5579 5587 5621 5643 5657 5666 5683 5695 5700 5702 5703 5705 5698 5696 5685 5683 5674 5665 5648 5641 5627 5637 5628 5621 5614 5610 5606 5600 5592 5586 5580 5575 5568 5562 5554 5548 5542 5537 5533 5526 5520 5514
5549 5562 5567 5595 5613 5611 5642 5656 5670 5682 5692 5695 5696 5691 5687 5688 5679 5674 5666 5664 5649 5629 5624 5624 5614 5613 5607 5607 5598 5591 5585 5580 5574 5568 5561 5554 5547 5541 5535 5530 5527 5523 5518 5514